Location: 22
(39.7117°N, 89.5929°W)
Time: 09:54:12
(UTC-05:00)

S-56A Canister/Altair - Pass Details

Date: 13 February 2023
Orbit: 638 x 2493 km, 38.9° (Epoch: 25 March)

Event Time Altitude Azimuth Distance (km) Brightness Sun altitude
Rises 06:08:48 0° 215° (SW) 4,033 11.0 -9.2°
Reaches altitude 10° 06:12:32 10° 202° (SSW) 2,761 10.3 -8.5°
Maximum altitude 06:17:17 22° 153° (SSE) 1,705 9.8 -7.6°
Drops below altitude 10° 06:21:08 10° 101° (ESE) 2,190 11.7 -6.9°
Sets 06:23:43 0° 86° (E) 3,003 12.4 -6.4°
